[[{"header":{"parameterUnit":"m.s-1","parameterCategory":1,"la1":30.2991,"la2":30.254,"lo1":-89.0895,"lo2":-89.0444,"dy":0.0017,"dx":0.0017,"nx":28,"ny":28,"refTime":"2025-01-23T09:00:00:Z","depth":0,"parameterNumber":2,"parameterNumberName":"U-component_of_WINDS"},"data":[0,0,0,0,0,0,0,0,0,0,0,0,0,0,0,0,0,0,0,0,0,0,0,0,0,0,0,0,0,0,0,0,0,0,0,0,0,0,0,0,0,0,0,0,0,0,0,0,0,0,0,0,0,0,0,0,0,0,-0.2879,-0.2879,0,-0.2903,-0.2904,-0.2904,-0.2888,-0.2887,-0.2886,-0.2886,-0.2913,-0.2915,-0.2916,0,0,0,0,0,0,0,0,0,0,0,0,0,-0.2819,-0.282,-0.2879,-0.2879,-0.2879,-0.2903,-0.2904,-0.2904,-0.2888,-0.2887,-0.2886,-0.2885,-0.2913,-0.2915,-0.2916,0,0,0,0,0,0,0,0,0,0,0,0,0,-0.2845,-0.2821,-0.2879,-0.2874,-0.2874,-0.2903,-0.2904,-0.2904,-0.2888,-0.2887,-0.2886,-0.2885,-0.2912,-0.2914,-0.2916,-0.2952,0,0,-0.2923,-0.2924,0,0,0,0,0,0,0,0,-0.2843,-0.2847,-0.2875,-0.2875,-0.2875,-0.2891,-0.2893,-0.292,-0.2889,-0.2883,-0.2886,-0.2884,-0.2907,-0.291,-0.2917,-0.2953,-0.2955,-0.2923,-0.2925,-0.2925,-0.2926,0,0,0,0,0,0,0,-0.2841,-0.2846,-0.2889,-0.2875,-0.2875,-0.2871,-0.2874,-0.2898,-0.2901,-0.2883,-0.2882,-0.2885,-0.2907,-0.2915,-0.2917,-0.2955,-0.2923,-0.2925,-0.2926,-0.2927,-0.3019,-0.3021,0,0,0,0,0,0,-0.284,-0.2844,-0.2888,-0.2889,-0.2856,-0.2873,-0.2876,-0.2887,-0.2901,-0.2902,-0.2886,-0.2884,-0.2912,-0.2915,-0.2918,-0.2959,-0.2925,-0.2927,-0.2929,-0.3018,-0.302,-0.3021,0,0,0,0,0,0,-0.2839,-0.2844,-0.2887,-0.2866,-0.2872,-0.2875,-0.2888,-0.2888,-0.2896,-0.2903,-0.2903,-0.2894,-0.2911,-0.2915,-0.2943,-0.296,-0.2928,-0.293,-0.3017,-0.3019,-0.302,-0.3043,0,0,0,0,0,0,-0.2837,-0.2843,-0.2857,-0.2867,-0.2873,-0.2911,-0.2889,-0.289,-0.2899,-0.2897,-0.291,-0.2911,-0.291,-0.294,-0.2945,-0.2963,-0.2932,-0.3015,-0.3018,-0.302,-0.3041,-0.3045,-0.3049,0,0,0,0,0,-0.2835,-0.2864,-0.2858,-0.2863,-0.289,-0.2912,-0.2916,-0.2914,-0.2901,-0.2915,-0.2918,-0.2911,-0.2957,-0.2943,-0.2949,-0.2967,-0.3014,-0.3017,-0.302,-0.3039,-0.3044,-0.3049,0,0,0,0,0,0,-0.2858,-0.2865,-0.2859,-0.2892,-0.2901,-0.291,-0.2927,-0.292,-0.2935,-0.2932,-0.2929,-0.2932,-0.2961,-0.2967,-0.2951,-0.3001,-0.2984,-0.2988,-0.2996,-0.3002,-0.3006,-0.3004,-0.2934,0,0,0,0,0,-0.2866,-0.2883,-0.2889,-0.2917,-0.2922,-0.2924,-0.2934,-0.2931,-0.2941,-0.2946,-0.2952,-0.2963,-0.2979,-0.2991,-0.3007,-0.3041,-0.3043,-0.3056,-0.306,-0.3064,-0.3067,-0.3084,-0.309,-0.303,-0.303,-0.3029,0,0,-0.2885,-0.2891,-0.2902,-0.2922,-0.2929,-0.2947,-0.2928,-0.2948,-0.2961,-0.2949,-0.2975,-0.298,-0.2991,-0.3022,-0.3036,-0.3028,-0.3084,-0.3067,-0.307,-0.3072,-0.3087,-0.3093,-0.3098,-0.3031,-0.3031,-0.3031,0,0,-0.2928,-0.2934,-0.2958,-0.2964,-0.2975,-0.2975,-0.298,-0.2989,-0.2991,-0.3017,-0.3008,-0.3023,-0.3053,-0.3061,-0.3069,-0.3111,-0.3104,-0.3117,-0.3139,-0.3155,-0.316,-0.3164,-0.3178,-0.3184,-0.312,-0.312,-0.312,0,-0.295,-0.2976,-0.2971,-0.2991,-0.2999,-0.2987,-0.301,-0.3018,-0.3033,-0.3039,-0.3029,-0.3064,-0.3072,-0.3103,-0.3113,-0.312,-0.3126,-0.3116,-0.316,-0.3164,-0.3168,-0.3181,-0.3187,-0.3121,-0.3121,-0.3121,-0.3121,0,-0.3002,-0.302,-0.3037,-0.3051,-0.3061,-0.3083,-0.3081,-0.3092,-0.3087,-0.3088,-0.3114,-0.3121,-0.3138,-0.3145,-0.3142,-0.3176,-0.317,-0.316,-0.3143,-0.3175,-0.3187,-0.3193,-0.3123,-0.3123,-0.3123,-0.3122,0,0,-0.3063,-0.307,-0.3077,-0.3082,-0.3091,-0.3105,-0.3125,-0.3139,-0.3148,-0.3159,-0.3176,-0.3199,-0.3189,-0.3198,-0.3195,-0.3209,-0.3241,-0.3197,-0.3198,-0.3205,-0.3277,-0.3285,-0.3291,-0.3235,-0.3236,-0.3237,-0.3276,0,-0.3105,-0.314,-0.3135,-0.3168,-0.3184,-0.3171,-0.3188,-0.3196,-0.3197,-0.321,-0.3211,-0.3228,-0.3213,-0.3218,-0.3232,-0.3234,-0.3255,-0.3231,-0.3251,-0.3252,-0.3249,-0.3298,-0.3306,-0.3343,-0.3281,-0.3282,-0.3282,0,-0.3161,-0.3171,-0.3206,-0.3209,-0.3216,-0.3232,-0.3243,-0.3257,-0.3264,-0.3263,-0.3272,-0.3265,-0.3285,-0.3266,-0.3293,-0.3277,-0.3284,-0.3286,-0.3288,-0.329,-0.327,-0.3301,-0.3354,-0.336,-0.329,-0.329,-0.3289,0,-0.3201,-0.3223,-0.3246,-0.3251,-0.3256,-0.3267,-0.327,-0.3276,-0.3285,-0.3295,-0.33,-0.3313,-0.332,-0.333,-0.3326,-0.3313,-0.3353,-0.3335,-0.3353,-0.3354,-0.3364,-0.3363,-0.3419,-0.3368,-0.3368,-0.3368,-0.3368,0,-0.3249,-0.3271,-0.3264,-0.3278,-0.3301,-0.3294,-0.3317,-0.3319,-0.3324,-0.3338,-0.3327,-0.3341,-0.3336,-0.3349,-0.3346,-0.3368,-0.3372,-0.3372,-0.3371,-0.3373,-0.3373,-0.3378,-0.3376,-0.3369,-0.3369,-0.3369,-0.3368,0,-0.3299,-0.3295,-0.3319,-0.3321,-0.3322,-0.3339,-0.334,-0.3354,-0.3352,-0.337,-0.3374,-0.3372,-0.3387,-0.3384,-0.3401,-0.3399,-0.3426,-0.3422,-0.3423,-0.3422,-0.344,-0.3439,-0.3502,-0.3509,-0.3454,-0.3454,-0.3455,0,-0.333,-0.3346,-0.3349,-0.3357,-0.336,-0.3373,-0.3381,-0.3374,-0.3382,-0.339,-0.3402,-0.3415,-0.3425,-0.3449,-0.3449,-0.3461,-0.3457,-0.3478,-0.3459,-0.346,-0.3457,-0.3456,-0.3457,-0.3483,-0.3483,-0.3484,-0.3484,0,-0.3387,-0.3383,-0.3394,-0.3403,-0.3412,-0.3419,-0.3426,-0.3433,-0.3426,-0.3436,-0.345,-0.3457,-0.3473,-0.3486,-0.3496,-0.3499,-0.3491,-0.349,-0.3495,-0.3497,-0.3497,-0.3496,-0.3433,-0.3489,-0.3488,-0.3488,-0.3488,-0.3488,-0.3428,-0.3441,-0.3444,-0.3455,-0.3459,-0.3464,-0.3476,-0.3475,-0.3486,-0.3497,-0.3492,-0.3507,-0.3512,-0.3525,-0.3529,-0.3541,-0.3533,-0.354,-0.3542,-0.3544,-0.3546,-0.3494,-0.3543,-0.3543,-0.3542,-0.3542,-0.3542,0,-0.3483,-0.3484,-0.3494,-0.3502,-0.3511,-0.35,-0.3506,-0.3514,-0.3528,-0.3532,-0.3541,-0.3556,-0.3568,-0.3568,-0.3579,-0.3588,-0.3584,-0.3591,-0.359,-0.3591,-0.3552,-0.3547,-0.3594,-0.3594,-0.3594,-0.3594,-0.3594,-0.3594,-0.3513,-0.3533,-0.3529,-0.3551,-0.3551,-0.3565,-0.3569,-0.3574,-0.3577,-0.3593,-0.3602,-0.3602,-0.3604,-0.3614,-0.3624,-0.3624,-0.3628,-0.3636,-0.3635,-0.3599,-0.3594,-0.3589,-0.3584,-0.3638,-0.3638,-0.3672,-0.3672,-0.3673]},{"header":{"parameterUnit":"m.s-1","parameterCategory":1,"la1":30.2991,"la2":30.254,"lo1":-89.0895,"lo2":-89.0444,"dy":0.0017,"dx":0.0017,"nx":28,"ny":28,"refTime":"2025-01-23T09:00:00:Z","depth":0,"parameterNumber":3,"parameterNumberName":"V-component_of_WINDS"},"data":[0,0,0,0,0,0,0,0,0,0,0,0,0,0,0,0,0,0,0,0,0,0,0,0,0,0,0,0,0,0,0,0,0,0,0,0,0,0,0,0,0,0,0,0,0,0,0,0,0,0,0,0,0,0,0,0,0,0,-4.6451,-4.6453,0,-4.6604,-4.6606,-4.6608,-4.6543,-4.654,-4.6536,-4.6532,-4.6686,-4.6693,-4.6701,0,0,0,0,0,0,0,0,0,0,0,0,0,-4.6098,-4.6105,-4.6451,-4.6453,-4.6455,-4.6604,-4.6606,-4.6608,-4.6544,-4.6539,-4.6535,-4.6531,-4.6684,-4.6692,-4.6701,0,0,0,0,0,0,0,0,0,0,0,0,0,-4.6251,-4.6107,-4.645,-4.6441,-4.6441,-4.6604,-4.6606,-4.6609,-4.6545,-4.6539,-4.6534,-4.6529,-4.6681,-4.6692,-4.6703,-4.6883,0,0,-4.6737,-4.6742,0,0,0,0,0,0,0,0,-4.6242,-4.6264,-4.644,-4.6442,-4.6443,-4.6549,-4.6538,-4.6701,-4.6546,-4.6505,-4.6532,-4.6526,-4.6645,-4.6659,-4.6699,-4.689,-4.6896,-4.6738,-4.6745,-4.675,-4.6753,0,0,0,0,0,0,0,-4.6232,-4.6257,-4.6511,-4.6443,-4.6444,-4.6427,-4.6443,-4.6568,-4.6604,-4.6509,-4.6504,-4.6524,-4.6644,-4.6689,-4.6702,-4.6899,-4.6738,-4.6748,-4.6755,-4.6759,-4.7243,-4.7249,0,0,0,0,0,0,-4.6222,-4.6249,-4.6506,-4.6516,-4.6327,-4.6438,-4.6456,-4.652,-4.6603,-4.661,-4.6528,-4.652,-4.6672,-4.6689,-4.6708,-4.6923,-4.675,-4.676,-4.6767,-4.7237,-4.7244,-4.7251,0,0,0,0,0,0,-4.6214,-4.6245,-4.65,-4.6381,-4.6412,-4.645,-4.6523,-4.6526,-4.6571,-4.6617,-4.6623,-4.6567,-4.6668,-4.6692,-4.684,-4.6927,-4.6765,-4.6776,-4.723,-4.7239,-4.7248,-4.7356,0,0,0,0,0,0,-4.6205,-4.6243,-4.6313,-4.6383,-4.6419,-4.6632,-4.6529,-4.6533,-4.6591,-4.6582,-4.6655,-4.6662,-4.6666,-4.6823,-4.6851,-4.694,-4.6784,-4.7222,-4.7234,-4.7245,-4.7344,-4.7367,-4.7387,0,0,0,0,0,-4.6192,-4.6337,-4.6317,-4.6348,-4.6508,-4.6637,-4.6657,-4.6659,-4.6598,-4.6668,-4.6698,-4.666,-4.6913,-4.6839,-4.6869,-4.6963,-4.7216,-4.7231,-4.7244,-4.7335,-4.7363,-4.7386,0,0,0,0,0,0,-4.6275,-4.6346,-4.6325,-4.6497,-4.6561,-4.6626,-4.6714,-4.6689,-4.6771,-4.6759,-4.6757,-4.6774,-4.6927,-4.696,-4.6875,-4.7141,-4.7055,-4.7076,-4.7114,-4.7141,-4.7162,-4.7151,-4.6794,0,0,0,0,0,-4.6313,-4.6414,-4.647,-4.6616,-4.665,-4.6676,-4.6733,-4.6729,-4.6795,-4.6822,-4.6862,-4.6927,-4.7021,-4.7083,-4.7172,-4.7349,-4.7363,-4.7428,-4.7449,-4.7467,-4.7484,-4.7579,-4.7608,-4.7296,-4.7296,-4.7295,0,0,-4.6393,-4.6445,-4.6508,-4.6634,-4.6683,-4.6786,-4.67,-4.6812,-4.6887,-4.6838,-4.698,-4.7013,-4.7084,-4.7247,-4.7321,-4.7279,-4.7574,-4.7484,-4.7498,-4.7506,-4.7596,-4.7626,-4.7652,-4.7305,-4.7303,-4.7302,0,0,-4.6592,-4.6641,-4.6768,-4.6819,-4.6896,-4.6912,-4.6943,-4.7011,-4.7031,-4.7174,-4.7139,-4.7228,-4.739,-4.7442,-4.749,-4.7708,-4.7676,-4.7736,-4.7848,-4.794,-4.7965,-4.7986,-4.8063,-4.8091,-4.7754,-4.7754,-4.7754,0,-4.6681,-4.6836,-4.6836,-4.6951,-4.7007,-4.6968,-4.7096,-4.7145,-4.7246,-4.7285,-4.7237,-4.744,-4.7485,-4.7659,-4.7712,-4.7753,-4.7786,-4.7728,-4.7961,-4.7983,-4.8003,-4.8076,-4.8105,-4.7761,-4.776,-4.776,-4.7759,0,-4.6941,-4.7049,-4.7142,-4.7242,-4.7308,-4.7429,-4.7446,-4.7513,-4.7503,-4.7524,-4.7669,-4.7722,-4.7821,-4.7862,-4.7853,-4.8035,-4.8007,-4.7961,-4.7874,-4.804,-4.8108,-4.8136,-4.7771,-4.7768,-4.7766,-4.7765,0,0,-4.7197,-4.7295,-4.7329,-4.7373,-4.7454,-4.7536,-4.7655,-4.7752,-4.7809,-4.788,-4.7978,-4.8116,-4.8073,-4.8128,-4.8124,-4.8205,-4.8373,-4.8149,-4.815,-4.8188,-4.8575,-4.8609,-4.8641,-4.8352,-4.8357,-4.8362,-4.8568,0,-4.7401,-4.7609,-4.7613,-4.7804,-4.7902,-4.7866,-4.7969,-4.8029,-4.8052,-4.8137,-4.8161,-4.8259,-4.8196,-4.8228,-4.8307,-4.8336,-4.845,-4.8321,-4.8442,-4.8446,-4.8425,-4.8677,-4.8714,-4.8907,-4.8595,-4.86,-4.8603,0,-4.7667,-4.7747,-4.7948,-4.8014,-4.8055,-4.8148,-4.8237,-4.832,-4.8386,-4.8397,-4.8458,-4.8442,-4.856,-4.8471,-4.8634,-4.8546,-4.8595,-4.8617,-4.8624,-4.8635,-4.8535,-4.8695,-4.8968,-4.8997,-4.8645,-4.8642,-4.8639,0,-4.7832,-4.799,-4.813,-4.8169,-4.825,-4.8316,-4.8352,-4.8413,-4.8471,-4.8549,-4.8586,-4.8676,-4.8725,-4.8794,-4.8802,-4.8737,-4.8966,-4.8877,-4.8977,-4.8977,-4.9027,-4.9024,-4.9312,-4.906,-4.9059,-4.9059,-4.9058,0,-4.8059,-4.8183,-4.8206,-4.8292,-4.843,-4.8431,-4.8567,-4.8598,-4.8652,-4.8743,-4.8717,-4.8802,-4.8808,-4.8895,-4.8902,-4.9035,-4.9058,-4.9068,-4.9069,-4.9071,-4.9069,-4.9103,-4.909,-4.9067,-4.9065,-4.9063,-4.9062,0,-4.8267,-4.8287,-4.8438,-4.8501,-4.852,-4.8619,-4.8673,-4.8754,-4.8774,-4.8889,-4.8916,-4.8947,-4.9048,-4.9063,-4.9182,-4.9186,-4.9346,-4.9332,-4.9324,-4.9322,-4.942,-4.9411,-4.974,-4.9783,-4.9503,-4.9506,-4.9508,0,-4.841,-4.8505,-4.8579,-4.8639,-4.8679,-4.8774,-4.8834,-4.8838,-4.8901,-4.8983,-4.9055,-4.9153,-4.9233,-4.9396,-4.9428,-4.9518,-4.9506,-4.9615,-4.9519,-4.9518,-4.9507,-4.9501,-4.951,-4.9634,-4.9637,-4.9639,-4.9641,0,-4.8663,-4.8668,-4.8755,-4.8846,-4.8917,-4.8989,-4.9056,-4.9105,-4.9118,-4.919,-4.9293,-4.9355,-4.9476,-4.9574,-4.9663,-4.9698,-4.9672,-4.9671,-4.9699,-4.9702,-4.9693,-4.9698,-4.9374,-4.9663,-4.9661,-4.966,-4.9658,-4.9657,-4.8842,-4.8925,-4.899,-4.9087,-4.9138,-4.9201,-4.9281,-4.9311,-4.9398,-4.9497,-4.9494,-4.9608,-4.967,-4.9787,-4.9829,-4.9917,-4.9881,-4.9922,-4.9932,-4.9942,-4.9951,-4.9679,-4.9933,-4.9933,-4.9932,-4.9932,-4.9931,0,-4.9093,-4.9133,-4.9222,-4.9317,-4.9394,-4.9363,-4.9435,-4.9501,-4.9602,-4.9663,-4.9741,-4.986,-4.9954,-4.9994,-5.0086,-5.0149,-5.0139,-5.0173,-5.0168,-5.0176,-4.9978,-4.9945,-5.0179,-5.0179,-5.0179,-5.0179,-5.0179,-5.0179,-4.9232,-4.9369,-4.9382,-4.9544,-4.9582,-4.9694,-4.9738,-4.9795,-4.9844,-4.9978,-5.0057,-5.0082,-5.0134,-5.023,-5.0315,-5.0323,-5.0358,-5.0398,-5.0401,-5.0215,-5.019,-5.0166,-5.0135,-5.0405,-5.0406,-5.0592,-5.0594,-5.0595]}]]